This is the latest recevied weather packets stored in our database for station/object K4IR. If no packets are shown the sender has not sent any weather packets the latest 10 day(s).
| Time | Temp. | Humidity | Pressure | Rain* | Wind** | Luminosity | Snow |
|---|---|---|---|---|---|---|---|
| 1778155676 | 21.11° C | 98% | 1012.2 hPa | 0 mm | - | 24 W/m² | - |
| 1778155075 | 21.11° C | 98% | 1012.3 hPa | 0 mm | - | 30 W/m² | - |
| 1778154472 | 21.11° C | 98% | 1012.1 hPa | 0 mm | - | 24 W/m² | - |
| 1778153867 | 21.11° C | 98% | 1012.4 hPa | 0 mm | - | 27 W/m² | - |
| 1778153268 | 21.11° C | 98% | 1012.9 hPa | 0 mm | - | 28 W/m² | - |
| 1778152663 | 21.11° C | 98% | 1012.9 hPa | 0 mm | - | 26 W/m² | - |
| 1778152060 | 21.11° C | 98% | 1013 hPa | 0.51 mm | - | 19 W/m² | - |
| 1778151460 | 21.11° C | 98% | 1013 hPa | 0 mm | - | 11 W/m² | - |
| 1778150859 | 21.11° C | 98% | 1012.6 hPa | 0 mm | - | 8 W/m² | - |
| 1778150258 | 21.11° C | 98% | 1012.5 hPa | 0 mm | - | 4 W/m² | - |
| 1778149656 | 21.11° C | 98% | 1012.6 hPa | 0 mm | - | 1 W/m² | - |
| 1778149056 | 21.11° C | 98% | 1012.5 hPa | 0.51 mm | - | 0 W/m² | - |
| 1778148454 | 21.11° C | 98% | 1012.4 hPa | 2.29 mm | - | 0 W/m² | - |
| 1778147850 | 21.11° C | 98% | 1012.7 hPa | 1.27 mm | - | 0 W/m² | - |
| 1778147249 | 21.11° C | 97% | 1012.5 hPa | 3.05 mm | - | 0 W/m² | - |
| 1778146649 | 21.11° C | 97% | 1012.4 hPa | 0.51 mm | - | 0 W/m² | - |
| 1778146045 | 20.56° C | 97% | 1011.8 hPa | 0 mm | - | 0 W/m² | - |
| 1778145442 | 21.11° C | 97% | 1011.8 hPa | 0.51 mm | - | 0 W/m² | - |
| 1778144839 | 20.56° C | 97% | 1011.7 hPa | 0.51 mm | - | 0 W/m² | - |
| 1778144239 | 20.56° C | 97% | 1011.6 hPa | 0 mm | - | 0 W/m² | - |
| 1778143639 | 20.56° C | 97% | 1011.7 hPa | 0 mm | - | 0 W/m² | - |
| 1778143038 | 20.56° C | 97% | 1011.5 hPa | 0 mm | - | 0 W/m² | - |
| 1778142437 | 20.56° C | 97% | 1011.8 hPa | 0 mm | - | 0 W/m² | - |
| 1778141835 | 20.56° C | 97% | 1011.8 hPa | 0.51 mm | - | 0 W/m² | - |
| 1778141234 | 20.56° C | 97% | 1011.7 hPa | 0 mm | - | 0 W/m² | - |
* Rain latest hour (hover to see other rain measurements)
** Current wind speed in m/s (hover to see current wind gust speed)